Location: Chilton Park
(37.7711°N, 100.0276°W)
Time: 20:36:51
(UTC+00:00)

Cosmos 2228 Rocket - Pass Details

Date: 08 December 2021
Orbit: 618 x 651 km, 82.5° (Epoch: 16 January)

Event Time Altitude Azimuth Distance (km) Brightness Sun altitude
Rises 12:14:09 0° 0° (N) 2,946 6.4 -17.1°
Reaches altitude 10° 12:16:31 10° 8° (N) 2,038 5.6 -16.7°
Maximum altitude 12:20:47 41° 79° (E) 939 4.5 -15.8°
Drops below altitude 10° 12:25:04 10° 150° (SSE) 2,041 6.4 -15.0°
Sets 12:27:25 0° 157° (SSE) 2,950 7.2 -14.6°
